{"data":{"norad_id":65642,"epoch":"2026-05-24T19:41:54.174624Z","epoch_age_seconds":90694,"freshness":"FRESH","line1":"1 65642U 25210W   26144.82076591  .00026063  00000+0  77924-3 0  9996","line2":"2 65642  53.1597 312.2857 0001190  99.9296 260.1841 15.34423982 39407","mean_motion":15.34423982,"eccentricity":0.000119,"inclination_deg":53.1597,"raan_deg":312.2857,"arg_perigee_deg":99.9296,"mean_anomaly_deg":260.1841,"bstar":0.00077924,"rev_number":3940,"period_min":93.846291304902,"perigee_km":461.81791007108,"apogee_km":463.44601308393,"semimajor_km":6840.7689615775,"source":"CELESTRAK","updated_at":"2026-05-25T13:38:20.885479Z"}}